Location: Carroll
(32.4774°N, 95.5202°W)
Time: 16:08:40
(UTC+02:00)

Daily predictions for brighter satellites

Satellite Brightness Start Highest point End
(mag) Time Altitude Azimuth Time Altitude Azimuth Time Altitude Azimuth
OAO 3 Rocket 3.4 12:01:44 10° WNW 12:06:24 67° N 12:11:07 10° E
Cosmos 1937 Rocket 3.5 12:04:50 15° SSW 12:09:14 76° WNW 12:14:33 10° NNE
CZ-4B DEB 4.2 12:03:47 10° NNE 12:09:18 90° ESE 12:14:50 10° SSW
Cosmos 2150 Rocket 4.4 12:08:11 19° SW 12:11:44 46° WNW 12:16:53 10° N
Cosmos 2297 Rocket 4.4 12:08:06 10° SSE 12:12:23 22° E 12:16:39 10° NE
Cosmos 2341 Rocket 4.1 12:06:46 10° S 12:13:02 84° E 12:19:24 10° N
PAYLOAD B 4.2 12:09:30 10° N 12:14:58 68° WNW 12:20:26 10° SSW
ATLAS 5 CENTAUR R/B 3.6 12:13:48 11° W 12:16:55 19° NW 12:20:37 10° N
Coronas F rocket 2.9 12:16:36 10° SSE 12:19:07 35° E 12:21:39 10° NNE
Cosmos 1892 2.7 12:16:43 10° SSW 12:20:36 71° W 12:24:29 10° N
UNKNOWN OBJECT B 4.4 12:18:58 10° NNW 12:21:38 18° WNW 12:23:28 14° WSW
COSMOS 2428 3.1 12:18:23 10° NNW 12:24:03 69° ENE 12:29:41 10° SSE
ADEOS II 3.5 12:19:38 10° NNE 12:24:33 39° E 12:29:26 10° SSE
GENESIS II 4.2 12:23:59 10° NW 12:28:01 62° WSW 12:31:58 10° SSE
Intercosmos 24 Rocket 4.4 12:24:32 10° S 12:28:59 83° E 12:32:35 10° N
Cosmos 1733 Rocket 3.2 12:25:41 10° SSW 12:29:54 54° W 12:34:11 10° N
Cosmos 2154 Rocket 4.3 12:25:19 10° SSW 12:31:26 53° W 12:37:38 10° N
ATLAS CENTAUR R/B 2.4 12:29:12 10° NNW 12:33:42 55° ENE 12:37:48 10° SE
Nadezhda 3 Rocket 4.0 12:28:05 10° NNW 12:34:10 67° W 12:40:14 10° S
Sich 1 Rocket 3.5 12:31:17 10° S 12:35:41 83° W 12:40:04 10° N
SEDSat Delta rocket 4.0 12:31:04 10° W 12:37:46 64° SSW 12:44:00 10° ESE
SL-8 Rocket 4.2 12:34:17 10° S 12:40:27 81° E 12:46:42 10° N
SL-16 R/B 4.0 12:39:01 10° W 12:40:39 11° W 12:42:18 10° WSW
Resurs 1-4 Rocket 4.0 12:38:32 10° NW 12:41:08 14° WNW 12:43:46 10° W
SL-16 R/B 3.9 12:37:15 10° SW 12:41:28 19° W 12:45:42 10° NW
Cosmos 220 Rocket 4.3 12:38:44 10° SSW 12:42:49 49° WNW 12:46:58 10° N
CZ-4B R/B 3.7 12:39:31 10° N 12:43:14 35° WNW 12:47:06 10° SW
BREEZE-M DEB (TANK) 4.2 12:36:26 10° WSW 12:45:35 34° NW 12:48:54 10° NNE
Cosmos 2237 Rocket 4.4 12:41:23 10° N 12:46:27 32° ENE 12:51:30 10° SE
Cosmos 2237 4.2 12:40:46 10° NNW 12:46:29 72° WSW 12:52:10 10° S
BREEZE-M DEB (TANK) 3.7 12:46:48 10° NNW 12:48:48 28° NE 12:51:22 10° ESE
